Time,TemperatureF,DewpointF,PressureIn,WindDirection,WindDirectionDegrees,WindSpeedMPH,WindSpeedGustMPH,Humidity,HourlyPrecipIn,Conditions,Clouds,dailyrainin,SoftwareType,DateUTC
2013-02-01 00:07:00,29.1,19.0,29.58,WNW,303,7.0,-999.0,66,-99.99,,,0.71,weatherlink.com 1.10,2013-02-01 05:07:00,
2013-02-01 00:22:00,28.5,20.0,29.58,South,171,4.0,-999.0,70,-99.99,,,0.71,weatherlink.com 1.10,2013-02-01 05:22:00,
2013-02-01 00:37:00,28.1,20.0,29.58,WSW,250,2.0,-999.0,71,-99.99,,,0.71,weatherlink.com 1.10,2013-02-01 05:37:00,
2013-02-01 00:52:00,28.4,19.0,29.59,SSW,210,4.0,-999.0,68,-99.99,,,0.71,weatherlink.com 1.10,2013-02-01 05:52:00,
2013-02-01 01:07:00,28.3,19.0,29.59,WNW,297,3.0,-999.0,67,-99.99,,,0.71,weatherlink.com 1.10,2013-02-01 06:07:00,
2013-02-01 01:22:00,27.9,19.0,29.60,West,273,0.0,-999.0,69,-99.99,,,0.71,weatherlink.com 1.10,2013-02-01 06:22:00,
2013-02-01 01:37:00,27.6,18.0,29.60,West,277,1.0,-999.0,68,-99.99,,,0.71,weatherlink.com 1.10,2013-02-01 06:37:00,
2013-02-01 01:52:00,27.5,19.0,29.61,WSW,248,2.0,-999.0,69,-99.99,,,0.71,weatherlink.com 1.10,2013-02-01 06:52:00,
2013-02-01 02:07:00,27.3,18.0,29.61,WSW,252,1.0,-999.0,68,-99.99,,,0.71,weatherlink.com 1.10,2013-02-01 07:07:00,
2013-02-01 02:22:00,27.2,18.0,29.62,West,281,0.0,-999.0,68,-99.99,,,0.71,weatherlink.com 1.10,2013-02-01 07:22:00,
2013-02-01 02:37:00,27.1,17.0,29.62,West,279,0.0,-999.0,66,-99.99,,,0.71,weatherlink.com 1.10,2013-02-01 07:37:00,
2013-02-01 02:52:00,27.2,16.0,29.62,West,271,4.0,-999.0,63,-99.99,,,0.71,weatherlink.com 1.10,2013-02-01 07:52:00,
2013-02-01 03:07:00,27.1,16.0,29.62,WSW,252,0.0,-999.0,64,-99.99,,,0.71,weatherlink.com 1.10,2013-02-01 08:07:00,
2013-02-01 03:22:00,26.8,16.0,29.62,West,267,3.0,-999.0,65,-99.99,,,0.71,weatherlink.com 1.10,2013-02-01 08:22:00,
2013-02-01 03:37:00,26.4,16.0,29.62,West,279,2.0,-999.0,66,-99.99,,,0.71,weatherlink.com 1.10,2013-02-01 08:37:00,
2013-02-01 03:52:00,26.4,16.0,29.63,West,261,0.0,-999.0,65,-99.99,,,0.71,weatherlink.com 1.10,2013-02-01 08:52:00,
2013-02-01 04:07:00,26.6,14.0,29.63,WSW,254,3.0,-999.0,59,-99.99,,,0.71,weatherlink.com 1.10,2013-02-01 09:07:00,
2013-02-01 04:22:00,26.9,13.0,29.64,West,265,1.0,-999.0,56,-99.99,,,0.71,weatherlink.com 1.10,2013-02-01 09:22:00,
2013-02-01 04:38:00,26.9,13.0,29.64,WSW,254,3.0,-999.0,56,-99.99,,,0.00,weatherlink.com 1.10,2013-02-01 09:38:00,
2013-02-01 04:53:00,26.9,13.0,29.65,WSW,241,0.0,-999.0,55,-99.99,,,0.00,weatherlink.com 1.10,2013-02-01 09:53:00,
2013-02-01 05:08:00,26.7,13.0,29.65,WSW,257,0.0,-999.0,56,-99.99,,,0.00,weatherlink.com 1.10,2013-02-01 10:08:00,
2013-02-01 05:23:00,26.6,13.0,29.65,WSW,257,1.0,-999.0,56,-99.99,,,0.00,weatherlink.com 1.10,2013-02-01 10:23:00,
2013-02-01 05:38:00,26.3,12.0,29.66,SSW,203,0.0,-999.0,56,-99.99,,,0.00,weatherlink.com 1.10,2013-02-01 10:38:00,
2013-02-01 05:53:00,26.4,13.0,29.66,WSW,255,3.0,-999.0,56,-99.99,,,0.00,weatherlink.com 1.10,2013-02-01 10:53:00,
2013-02-01 06:08:00,26.6,12.0,29.67,West,262,4.0,-999.0,55,-99.99,,,0.00,weatherlink.com 1.10,2013-02-01 11:08:00,
2013-02-01 06:23:00,26.5,13.0,29.67,WSW,245,1.0,-999.0,56,-99.99,,,0.00,weatherlink.com 1.10,2013-02-01 11:23:00,
2013-02-01 06:38:00,26.4,13.0,29.68,WSW,238,3.0,-999.0,56,-99.99,,,0.00,weatherlink.com 1.10,2013-02-01 11:38:00,
2013-02-01 06:53:00,26.3,12.0,29.69,WSW,250,0.0,-999.0,56,-99.99,,,0.00,weatherlink.com 1.10,2013-02-01 11:53:00,
2013-02-01 07:08:00,26.1,13.0,29.70,NW,311,4.0,-999.0,57,-99.99,,,0.00,weatherlink.com 1.10,2013-02-01 12:08:00,
2013-02-01 07:23:00,26.0,13.0,29.70,WSW,245,1.0,-999.0,57,-99.99,,,0.00,weatherlink.com 1.10,2013-02-01 12:23:00,
2013-02-01 07:38:00,26.3,12.0,29.72,WSW,248,0.0,-999.0,56,-99.99,,,0.00,weatherlink.com 1.10,2013-02-01 12:38:00,
2013-02-01 07:53:00,26.4,12.0,29.73,West,276,2.0,-999.0,55,-99.99,,,0.00,weatherlink.com 1.10,2013-02-01 12:53:00,
2013-02-01 08:08:00,26.6,11.0,29.74,West,263,6.0,-999.0,53,-99.99,,,0.00,weatherlink.com 1.10,2013-02-01 13:08:00,
2013-02-01 08:23:00,27.1,12.0,29.75,West,275,4.0,-999.0,53,-99.99,,,0.00,weatherlink.com 1.10,2013-02-01 13:23:00,
2013-02-01 08:38:00,27.4,11.0,29.76,SW,235,4.0,-999.0,50,-99.99,,,0.00,weatherlink.com 1.10,2013-02-01 13:38:00,
2013-02-01 08:53:00,28.1,11.0,29.76,SW,218,2.0,-999.0,49,-99.99,,,0.00,weatherlink.com 1.10,2013-02-01 13:53:00,
2013-02-01 09:08:00,28.4,11.0,29.76,WSW,249,4.0,-999.0,48,-99.99,,,0.00,weatherlink.com 1.10,2013-02-01 14:08:00,
2013-02-01 09:23:00,28.9,11.0,29.77,NW,304,2.0,-999.0,47,-99.99,,,0.00,weatherlink.com 1.10,2013-02-01 14:23:00,
2013-02-01 09:38:00,29.4,10.0,29.77,WNW,284,1.0,-999.0,44,-99.99,,,0.00,weatherlink.com 1.10,2013-02-01 14:38:00,
2013-02-01 09:53:00,30.2,11.0,29.78,WNW,291,3.0,-999.0,45,-99.99,,,0.00,weatherlink.com 1.10,2013-02-01 14:53:00,
2013-02-01 10:08:00,30.6,10.0,29.78,WSW,250,3.0,-999.0,42,-99.99,,,0.00,weatherlink.com 1.10,2013-02-01 15:08:00,
2013-02-01 10:23:00,31.2,11.0,29.78,NW,306,4.0,-999.0,43,-99.99,,,0.00,weatherlink.com 1.10,2013-02-01 15:23:00,
2013-02-01 10:38:00,31.7,10.0,29.77,SW,228,0.0,-999.0,41,-99.99,,,0.00,weatherlink.com 1.10,2013-02-01 15:38:00,
2013-02-01 10:54:00,31.0,9.0,29.77,NNW,329,7.0,-999.0,40,-99.99,,,0.00,weatherlink.com 1.10,2013-02-01 15:54:00,
2013-02-01 11:09:00,30.6,8.0,29.76,ESE,103,0.0,-999.0,38,-99.99,,,0.00,weatherlink.com 1.10,2013-02-01 16:09:00,
2013-02-01 11:24:00,31.1,9.0,29.76,NE,51,5.0,-999.0,40,-99.99,,,0.00,weatherlink.com 1.10,2013-02-01 16:24:00,
2013-02-01 11:39:00,32.0,9.0,29.77,SSW,209,0.0,-999.0,39,-99.99,,,0.00,weatherlink.com 1.10,2013-02-01 16:39:00,
2013-02-01 11:54:00,31.5,8.0,29.77,West,278,4.0,-999.0,38,-99.99,,,0.00,weatherlink.com 1.10,2013-02-01 16:54:00,
2013-02-01 12:09:00,31.3,8.0,29.77,SSW,207,1.0,-999.0,37,-99.99,,,0.00,weatherlink.com 1.10,2013-02-01 17:09:00,
2013-02-01 12:24:00,31.5,8.0,29.77,WSW,254,1.0,-999.0,38,-99.99,,,0.00,weatherlink.com 1.10,2013-02-01 17:24:00,
2013-02-01 12:39:00,32.4,9.0,29.76,SW,231,1.0,-999.0,38,-99.99,,,0.00,weatherlink.com 1.10,2013-02-01 17:39:00,
2013-02-01 12:54:00,33.9,9.0,29.75,SSW,194,1.0,-999.0,35,-99.99,,,0.00,weatherlink.com 1.10,2013-02-01 17:54:00,
2013-02-01 13:09:00,33.8,8.0,29.74,WSW,241,5.0,-999.0,34,-99.99,,,0.00,weatherlink.com 1.10,2013-02-01 18:09:00,
2013-02-01 13:24:00,31.8,7.0,29.73,SSW,211,11.0,-999.0,35,-99.99,,,0.00,weatherlink.com 1.10,2013-02-01 18:24:00,
2013-02-01 13:39:00,30.3,7.0,29.75,South,187,0.0,-999.0,38,-99.99,,,0.00,weatherlink.com 1.10,2013-02-01 18:39:00,
2013-02-01 13:54:00,31.5,8.0,29.75,WNW,284,1.0,-999.0,38,-99.99,,,0.00,weatherlink.com 1.10,2013-02-01 18:54:00,
2013-02-01 14:09:00,30.8,7.0,29.76,West,273,1.0,-999.0,37,-99.99,,,0.00,weatherlink.com 1.10,2013-02-01 19:09:00,
2013-02-01 14:24:00,30.3,9.0,29.76,ESE,102,2.0,-999.0,40,-99.99,,,0.00,weatherlink.com 1.10,2013-02-01 19:24:00,
2013-02-01 14:39:00,30.4,8.0,29.77,SW,217,2.0,-999.0,39,-99.99,,,0.00,weatherlink.com 1.10,2013-02-01 19:39:00,
2013-02-01 14:54:00,30.8,8.0,29.77,SSW,211,3.0,-999.0,39,-99.99,,,0.00,weatherlink.com 1.10,2013-02-01 19:54:00,
2013-02-01 15:09:00,30.3,9.0,29.78,SW,234,2.0,-999.0,40,-99.99,,,0.00,weatherlink.com 1.10,2013-02-01 20:09:00,
2013-02-01 15:24:00,29.7,8.0,29.79,SSW,207,1.0,-999.0,40,-99.99,,,0.00,weatherlink.com 1.10,2013-02-01 20:24:00,
2013-02-01 15:39:00,29.7,7.0,29.80,SW,227,1.0,-999.0,38,-99.99,,,0.00,weatherlink.com 1.10,2013-02-01 20:39:00,
2013-02-01 15:54:00,29.6,7.0,29.80,West,267,1.0,-999.0,39,-99.99,,,0.00,weatherlink.com 1.10,2013-02-01 20:54:00,
2013-02-01 16:09:00,29.4,8.0,29.81,WNW,300,1.0,-999.0,40,-99.99,,,0.00,weatherlink.com 1.10,2013-02-01 21:09:00,
2013-02-01 16:24:00,29.0,8.0,29.83,South,189,0.0,-999.0,41,-99.99,,,0.00,weatherlink.com 1.10,2013-02-01 21:24:00,
2013-02-01 16:39:00,28.8,8.0,29.84,SSW,211,3.0,-999.0,42,-99.99,,,0.00,weatherlink.com 1.10,2013-02-01 21:39:00,
2013-02-01 16:54:00,28.3,8.0,29.86,NW,308,1.0,-999.0,42,-99.99,,,0.00,weatherlink.com 1.10,2013-02-01 21:54:00,
2013-02-01 17:09:00,27.9,7.0,29.87,ENE,73,1.0,-999.0,42,-99.99,,,0.00,weatherlink.com 1.10,2013-02-01 22:09:00,
2013-02-01 17:24:00,27.5,8.0,29.88,SSW,213,0.0,-999.0,43,-99.99,,,0.00,weatherlink.com 1.10,2013-02-01 22:24:00,
2013-02-01 17:39:00,27.0,7.0,29.89,SSW,209,5.0,-999.0,43,-99.99,,,0.00,weatherlink.com 1.10,2013-02-01 22:39:00,
2013-02-01 17:54:00,26.5,7.0,29.91,WNW,286,2.0,-999.0,44,-99.99,,,0.00,weatherlink.com 1.10,2013-02-01 22:54:00,
2013-02-01 18:09:00,26.1,7.0,29.92,ESE,112,1.0,-999.0,44,-99.99,,,0.00,weatherlink.com 1.10,2013-02-01 23:09:00,
2013-02-01 18:24:00,25.9,7.0,29.93,NE,55,2.0,-999.0,45,-99.99,,,0.00,weatherlink.com 1.10,2013-02-01 23:24:00,
2013-02-01 18:39:00,25.6,7.0,29.95,WSW,254,0.0,-999.0,46,-99.99,,,0.00,weatherlink.com 1.10,2013-02-01 23:39:00,
2013-02-01 18:54:00,25.2,7.0,29.95,ESE,107,0.0,-999.0,46,-99.99,,,0.00,weatherlink.com 1.10,2013-02-01 23:54:00,
2013-02-01 19:09:00,24.9,7.0,29.96,West,274,0.0,-999.0,47,-99.99,,,0.00,weatherlink.com 1.10,2013-02-02 00:09:00,
2013-02-01 19:24:00,24.9,7.0,29.97,NW,318,1.0,-999.0,47,-99.99,,,0.00,weatherlink.com 1.10,2013-02-02 00:24:00,
2013-02-01 19:54:00,24.7,9.0,29.99,WSW,250,3.0,-999.0,52,-99.99,,,0.00,weatherlink.com 1.10,2013-02-02 00:54:00,
2013-02-01 20:10:00,24.8,10.0,29.99,SSW,206,3.0,-999.0,53,-99.99,,,0.00,weatherlink.com 1.10,2013-02-02 01:10:00,
2013-02-01 20:25:00,24.9,9.0,30.00,NE,34,1.0,-999.0,50,-99.99,,,0.00,weatherlink.com 1.10,2013-02-02 01:25:00,
2013-02-01 20:40:00,24.5,7.0,30.00,West,265,2.0,-999.0,47,-99.99,,,0.00,weatherlink.com 1.10,2013-02-02 01:40:00,
2013-02-01 20:55:00,24.0,5.0,30.01,West,278,1.0,-999.0,45,-99.99,,,0.00,weatherlink.com 1.10,2013-02-02 01:55:00,
2013-02-01 21:10:00,23.5,5.0,30.02,SSW,211,0.0,-999.0,45,-99.99,,,0.00,weatherlink.com 1.10,2013-02-02 02:10:00,
2013-02-01 21:25:00,23.3,5.0,30.02,WSW,246,1.0,-999.0,46,-99.99,,,0.00,weatherlink.com 1.10,2013-02-02 02:25:00,
2013-02-01 21:40:00,23.1,5.0,30.03,WNW,294,4.0,-999.0,46,-99.99,,,0.00,weatherlink.com 1.10,2013-02-02 02:40:00,
2013-02-01 21:55:00,23.0,5.0,30.03,WSW,258,1.0,-999.0,46,-99.99,,,0.00,weatherlink.com 1.10,2013-02-02 02:55:00,
2013-02-01 22:10:00,22.6,5.0,30.03,WSW,256,1.0,-999.0,46,-99.99,,,0.00,weatherlink.com 1.10,2013-02-02 03:10:00,
2013-02-01 22:25:00,22.4,5.0,30.04,NW,306,2.0,-999.0,47,-99.99,,,0.00,weatherlink.com 1.10,2013-02-02 03:25:00,
2013-02-01 22:40:00,22.4,4.0,30.04,West,268,2.0,-999.0,45,-99.99,,,0.00,weatherlink.com 1.10,2013-02-02 03:40:00,
2013-02-01 22:55:00,22.3,4.0,30.05,SW,216,5.0,-999.0,46,-99.99,,,0.00,weatherlink.com 1.10,2013-02-02 03:55:00,
2013-02-01 23:10:00,22.0,4.0,30.05,SSW,212,1.0,-999.0,46,-99.99,,,0.00,weatherlink.com 1.10,2013-02-02 04:10:00,
2013-02-01 23:25:00,21.6,5.0,30.06,WSW,239,0.0,-999.0,48,-99.99,,,0.00,weatherlink.com 1.10,2013-02-02 04:25:00,
2013-02-01 23:40:00,21.2,5.0,30.07,SW,232,0.0,-999.0,49,-99.99,,,0.00,weatherlink.com 1.10,2013-02-02 04:40:00,
2013-02-01 23:55:00,20.9,5.0,30.07,West,266,3.0,-999.0,51,-99.99,,,0.00,weatherlink.com 1.10,2013-02-02 04:55:00,